Location: Seven Sisters Observatory
(42.1577°N, 84.0928°W)
Time: 07:46:57
(UTC-05:00)

ISS - Visible Passes

Search period start: 24 January 2019 00:00
Search period end: 03 February 2019 00:00
Orbit: 404 x 410 km, 51.6° (Epoch: 24 January)

Date Brightness Start Highest point End Pass type
(mag) Time Alt. Az. Time Alt. Az. Time Alt. Az.
24 Jan -2.9 19:32:33 10° W 19:35:42 42° NNW 19:35:42 42° NNW visible
25 Jan -3.7 18:40:59 10° WSW 18:44:16 71° NNW 18:46:34 18° NE visible
25 Jan -0.6 20:18:45 10° WNW 20:19:18 13° NW 20:19:18 13° NW visible
26 Jan -2.1 19:26:52 10° WNW 19:29:40 25° NNW 19:30:06 24° N visible
27 Jan -2.6 18:35:04 10° W 18:38:07 34° NNW 18:40:51 12° NE visible
27 Jan -0.7 20:13:11 10° NW 20:13:34 12° NW 20:13:34 12° NW visible
28 Jan -1.8 19:21:18 10° WNW 19:23:42 18° N 19:24:17 17° N visible
29 Jan -1.9 18:29:23 10° WNW 18:32:03 22° NNW 18:34:43 10° NE visible
29 Jan -0.8 20:07:19 10° NW 20:07:41 11° NNW 20:07:41 11° NNW visible
30 Jan -1.6 19:15:37 10° NW 19:17:45 16° N 19:18:20 15° N visible
31 Jan -1.7 18:23:45 10° NW 18:26:02 17° N 18:28:19 10° NE visible
31 Jan -1.0 20:01:04 10° NW 20:01:42 13° NNW 20:01:42 13° NNW visible
01 Feb -1.8 19:09:34 10° NW 19:11:46 16° N 19:12:22 16° NNE visible
02 Feb -1.5 19:54:31 10° NW 19:55:46 18° NNW 19:55:46 18° NNW visible
